SCP
0 0 0 0 0 0 0 0 0 0 0 0 0 0 0 0 0 0 0 0 0 -0 -0 -0 -0 -0 -0 -0 0 0 0 0 0 0 0 0 0 -0 -0 -0 -0 -0 -0 -0 -0 -0 -0 -0 -0
0 0 0 0 0 0 0 0 0 0 0 0 0 0 0 0 0 0 0 0 0 0 0 0 -0 -0 -0 -0 0 0 0 0 0 0 0 0 0 -0 -0 -0 -0 -0 -0 -0 0 0 -0 -0 -0
0 0 0 0 0 0 0 0 0 0 0 0 0 0 0 0 0 0 0 0 0 0 0 0 -0 -0 0 0 0 0 0 0 0 0 0 0 0 -0 -0 -0 -0 -0 -0 -0 0 0 -0 -0 -0
0 0 0 0 0 0 0 0 -0 0 0 0 0 0 0 0 0 0 0 0 0 0 0 0 -0 0 0 0 0 0 0 0 0 0 0 0 0 0 0 -0 -0 -0 -0 -0 -0 -0 -0 -0 -0
0 0 0 0 0 0 0 0 0 0 0 0 0 0 0 0 0 0 0 0 0 0 0 0 0 0 0 0 0 0 0 0 0 0 0 0 0 0 0 -0 -0 -0 -0 0 -0 -0 0 0 0
0 0 0 0 0 0 0 0 0 0 0 0 0 0 0 0 0 0 0 0 0 0 0 0 0 0 0 0 0 0 0 0 0 0 0 0 0 0 0 0 0 0 0 0 0 -0 0 0 0
0 0 0 0 0 0 0 0 0 0 0 0 0 0 0 0 0 0 0 0 0 0 0 0 0 0 0 0 0 0 0 0 0 0 0 0 0 0 0 0 0 0 0 0 0 0 0 0 0
0 0 0 0 0 0 0 0 0 0 0 0 0 0 0 0 0 0 0 0 0 0 0 0 0 0 0 0 0 0 0 0 0 0 0 0 0 0 0 0 0 0 0 0 0 0 0 0 0
0 0 0 0 0 0 0 0 0 0 0 0 0 0 0 0 0 0 0 0 0 0 0 0 0 0 0 0 0 0 0 0 0 0 0 0 0 0 0 0 0 0 0 0 0 0 0 0 0
0 0 0 0 0 0 0 0 0 0 0 0 0 0 0 0 0 0 0 0 0 0 0 0 0 0 0 0 0 0 0 0 0 0 0 0 0 0 0 0 0 0 0 0 0 0 0 0 0
0 0 0 0 0 0 0 0 0 0 0 0 0 0 0 0 0 0 0 0 0 0 0 0 0 0 0 0 0 0 0 0 0 0 0 0 0 0 0 0 0 0 0 0 0 0 0 0 0
0 0 0 0 0 0 0 0 0 0 0 0 0 0 0 0 0 0 0 0 0 0 0 0 0 0 0 0 0 0 0 0 0 0 0 0 0 0 0 0 0 0 0 0 0 0 0 0 0
0 0 0 0 0 0 0 0 0 0 0 0 0 0 0 0 0 0 0 0 0 0 0 0 0 0 0 0 0 0 0 0 0 0 0 0 0 0 0 0 0 0 0 0 0 0 0 0 0
0 0 0 0 0 0 0 0 0 0 0 0 0 0 1 0 0 0 0 0 0 0 0 0 0 0 0 0 0 0 0 0 0 0 0 0 0 0 0 0 0 0 0 0 0 0 0 0 0
0 0 0 0 0 0 -0 0 0 0 0 0 0 0 0 0 0 0 0 0 0 0 0 0 0 0 0 0 0 0 0 0 0 0 0 0 0 0 0 0 0 0 0 0 0 0 0 0 0
0 0 0 0 0 -0 -0 -0 0 0 0 0 0 0 0 0 0 0 0 0 0 0 0 0 0 0 0 0 0 0 0 0 0 0 0 0 0 0 0 0 0 0 0 0 0 0 0 0 0
0 0 0 0 0 0 -0 -0 0 0 0 0 0 0 0 0 0 0 0 0 0 0 0 0 0 0 0 0 0 0 0 0 0 0 0 0 0 0 0 0 0 0 0 0 0 0 0 0 0
0 0 0 0 0 0 0 -0 -0 0 0 0 0 0 0 0 -0 0 0 0 0 0 0 0 0 0 0 0 0 0 0 0 0 0 0 0 0 0 0 0 0 0 0 0 0 0 0 0 0
0 0 0 0 0 0 0 0 0 0 0 0 0 0 0 0 0 -0 0 0 0 0 0 0 0 0 0 0 0 0 0 0 0 0 0 0 0 0 0 0 0 0 0 0 0 0 0 0 0
-0 -0 0 0 0 0 0 0 0 0 0 0 0 -0 0 -0 0 0 0 0 0 0 0 0 0 0 0 0 0 0 0 0 0 0 0 0 0 0 0 0 0 0 0 0 0 0 0 0 0
0 -0 0 0 0 0 0 0 0 0 0 0 0 0 0 0 0 0 0 0 0 0 0 0 0 0 0 0 0 0 0 0 0 0 0 0 0 0 0 0 0 0 0 0 0 0 0 0 0
-0 -0 0 0 0 0 0 -0 0 0 0 0 0 0 0 0 0 0 0 0 0 0 0 0 0 0 0 0 0 0 0 0 0 0 0 0 0 0 0 0 0 0 0 0 0 0 0 0 0
-0 -0 -0 -0 0 0 0 0 -0 -0 0 0 0 0 0 0 0 0 0 0 0 0 0 0 0 0 0 0 0 0 0 0 0 0 0 0 0 0 0 0 0 0 0 0 0 0 0 0 0
0 0 0 -0 0 0 -0 0 -0 0 0 0 0 0 0 0 0 0 0 0 0 0 0 0 0 0 0 0 0 0 0 0 0 0 0 0 0 0 0 0 0 0 0 0 0 0 0 0 0
0 0 0 0 0 0 0 0 0 0 0 0 0 0 0 0 0 0 0 0 0 0 0 0 0 0 0 0 0 0 0 0 0 0 0 0 0 0 0 0 0 0 0 0 0 0 0 0 0
0 -0 0 0 0 0 0 0 0 -0 -0 -0 -0 0 0 0 0 0 0 0 0 0 0 0 0 0 0 0 0 0 0 0 0 0 0 0 0 0 0 0 0 0 0 0 0 0 0 0 0
0 -0 0 -0 -0 0 0 -0 -0 0 0 0 0 0 0 0 0 0 0 0 0 0 0 0 0 0 0 0 0 0 0 0 0 0 0 0 0 0 0 0 0 0 0 0 0 0 0 0 0
0 0 0 0 0 0 0 0 0 -0 0 0 0 0 0 0 0 0 0 0 0 0 0 0 0 0 0 0 0 0 0 0 0 0 0 0 0 0 0 0 0 0 0 0 0 0 0 0 0
0 0 0 0 0 0 0 0 -0 0 0 0 0 0 0 0 0 0 0 0 0 0 0 0 0 0 0 0 0 0 0 0 0 0 0 0 0 0 0 0 0 0 0 0 0 0 0 0 0
-0 -0 -0 0 0 0 0 0 0 -0 0 0 0 0 0 0 0 0 0 0 0 0 0 0 0 0 0 0 0 0 0 0 0 0 0 0 0 0 0 0 0 0 0 0 0 0 0 0 0
Wind_Speed_500mb
23 18 16 23 7 11 23 25 29 34 15 21 9 13 11 17 15 8 34 23 50 45 64 58 50 43 36 34 35 30 30 33 38 38 31 32 32 36 34 34 31 29 27 26 26 26 24 23 22
18 14 14 19 12 22 20 29 31 32 6 11 7 12 9 6 10 27 44 40 45 48 64 59 50 43 37 36 33 31 31 33 37 37 34 33 37 42 40 35 30 28 27 25 24 23 21 19 20
15 12 18 7 22 31 25 30 28 29 25 19 9 10 9 8 13 33 17 53 51 47 61 58 52 44 40 38 34 33 34 39 37 37 36 33 39 38 36 33 29 27 25 24 21 20 19 18 18
15 21 23 18 37 31 43 39 31 11 26 22 14 10 11 17 20 22 33 53 57 43 55 55 52 45 43 39 34 33 34 38 40 37 36 35 37 36 34 29 29 27 24 21 18 17 17 16 16
21 22 20 32 45 41 41 49 56 20 30 26 25 20 11 13 23 23 51 55 58 43 50 50 53 47 44 39 35 33 33 37 39 38 38 37 37 35 31 28 27 25 22 19 16 15 14 13 15
13 24 23 38 41 37 38 62 56 29 26 24 29 18 15 18 23 25 51 57 47 50 51 47 53 48 45 40 36 31 32 35 40 37 36 38 37 34 29 27 26 24 20 17 17 17 13 10 12
27 19 37 42 42 39 48 63 36 30 26 39 23 16 14 20 27 34 52 55 55 51 55 50 56 52 45 41 36 32 32 34 38 39 37 36 37 33 29 27 26 23 19 17 16 14 8 8 9
35 21 44 46 38 45 43 51 67 51 33 38 26 15 15 38 39 47 53 52 52 52 54 52 59 56 51 44 38 33 30 33 39 38 39 38 36 33 28 26 24 22 19 16 14 10 9 11 15
31 16 31 49 42 36 48 37 52 57 43 56 21 3 15 48 43 53 64 54 53 51 54 53 60 59 55 47 42 36 32 33 38 39 37 36 34 32 29 28 24 20 17 13 10 10 10 11 18
18 21 38 29 32 32 27 34 50 34 19 56 23 14 30 35 39 63 75 69 61 61 62 54 56 60 56 50 47 42 38 36 37 38 38 35 32 30 29 26 23 19 15 8 11 10 10 14 18
32 38 31 42 54 58 40 45 42 36 22 54 32 40 40 41 39 58 77 79 69 64 66 58 56 56 56 55 51 49 43 39 39 40 41 37 26 32 30 25 24 19 12 7 10 10 11 19 13
31 41 42 44 51 51 34 45 35 48 40 61 41 35 54 56 53 61 69 77 72 69 65 60 57 55 56 57 57 52 47 39 39 40 42 39 36 35 30 24 22 12 10 14 13 10 9 15 19
32 30 44 48 50 50 51 40 36 67 71 57 40 52 49 60 58 55 61 66 72 78 71 69 62 59 63 56 55 55 52 43 35 41 47 43 41 31 29 20 21 22 19 19 18 12 11 15 22
33 44 46 51 44 39 36 41 46 56 45 53 50 30 41 52 58 57 56 60 71 78 75 78 72 59 62 64 63 59 57 50 44 43 48 45 38 32 32 36 34 32 26 22 18 13 13 19 21
41 32 30 32 39 38 45 46 56 61 57 68 64 53 36 49 53 59 60 67 72 69 70 74 77 68 63 65 64 63 57 50 47 43 45 45 38 34 38 38 37 32 32 22 16 16 20 20 21
35 35 34 29 36 47 40 51 46 49 60 56 70 56 44 48 45 51 59 64 66 71 69 72 76 74 70 64 62 69 56 51 47 45 43 49 46 36 47 42 42 32 28 24 21 21 24 22 22
23 28 40 40 38 29 36 52 38 59 58 57 61 58 50 50 57 61 58 63 69 72 71 67 73 68 69 69 61 68 63 59 50 48 44 40 45 44 46 43 39 34 30 26 23 24 26 27 26
24 27 33 34 26 32 34 34 23 46 48 63 59 59 50 56 55 48 57 64 64 68 74 72 77 77 71 61 58 68 65 58 52 47 45 46 47 50 46 45 43 38 32 28 28 29 31 30 28
32 40 40 41 38 36 33 31 27 27 43 44 57 68 51 58 55 53 65 60 64 73 74 76 75 83 83 81 72 73 70 60 52 49 51 48 53 51 51 48 41 39 35 32 35 33 36 36 35
42 44 44 38 40 33 35 38 32 35 39 46 46 51 68 58 64 63 60 67 67 70 69 77 80 76 84 84 78 76 71 62 59 58 58 55 55 54 52 47 43 39 38 38 39 40 41 41 36
41 40 43 43 37 32 33 38 36 32 50 61 63 55 58 70 61 61 70 74 66 74 74 78 77 78 85 80 78 74 73 66 68 69 63 65 59 57 53 48 44 40 40 40 40 41 43 42 36
48 37 48 42 35 26 25 29 31 29 38 39 54 60 56 63 69 51 71 70 72 73 75 77 78 74 77 84 82 88 90 86 80 75 68 64 58 57 56 51 45 42 41 43 43 42 43 41 39
45 34 39 39 27 28 37 21 28 29 37 42 44 65 67 63 64 72 53 92 82 70 75 80 87 81 83 76 86 83 86 89 85 81 74 68 61 59 59 54 47 47 45 45 45 44 44 45 42
42 31 26 29 17 23 45 31 21 31 39 36 36 71 75 72 74 76 60 74 75 71 65 76 79 88 88 79 84 88 84 87 84 84 80 70 65 64 62 57 52 53 50 49 46 43 45 47 45
9 7 6 7 11 21 22 25 35 25 42 46 43 69 82 85 80 74 62 46 64 73 69 74 78 87 89 78 73 82 82 80 79 82 77 74 72 71 65 61 57 56 54 52 51 51 51 49 46
21 13 5 7 6 9 24 17 28 53 49 54 50 56 81 85 85 83 70 53 63 71 72 76 83 86 86 81 79 91 91 83 79 74 73 74 69 67 63 64 62 59 60 56 53 51 48 46 43
1 6 15 13 10 9 13 25 26 27 46 46 36 45 74 82 72 73 74 73 57 76 77 69 80 81 78 78 86 91 92 85 84 77 70 66 65 67 69 67 66 64 60 56 53 50 46 45 38
8 19 1 3 8 9 12 16 8 19 29 21 26 28 51 72 72 75 70 71 70 74 75 65 76 76 80 83 89 97 90 82 80 75 71 69 67 71 71 70 69 65 59 54 51 48 38 36 34
6 5 8 12 6 5 13 5 14 26 24 18 15 35 29 67 71 70 73 64 67 66 63 54 67 71 72 84 89 91 86 82 83 78 76 71 69 74 75 73 69 64 51 49 45 38 30 27 32
8 19 11 9 6 6 7 7 21 33 30 28 25 43 42 27 36 59 65 56 53 51 46 49 58 61 69 78 82 83 85 84 87 78 76 74 74 77 75 69 67 64 52 39 33 30 22 30 30
Wind_Direction_500mb
273 270 309 293 252 246 232 232 246 271 264 278 44 352 351 39 323 133 147 146 171 183 176 174 174 171 168 164 162 167 168 167 163 163 153 167 172 165 162 149 138 131 124 118 112 105 100 95 92
273 262 296 263 238 243 241 234 234 240 161 106 74 309 329 121 128 127 160 151 179 181 175 174 175 171 167 163 162 162 166 160 156 154 149 151 154 155 153 146 139 132 123 119 114 110 102 92 87
307 281 255 225 236 239 247 248 231 233 205 151 161 213 285 90 102 143 170 156 170 187 175 175 174 170 166 164 163 160 164 158 156 155 154 152 152 152 148 146 139 129 127 124 120 114 101 90 87
283 240 240 243 244 239 238 265 264 251 206 165 211 266 148 131 139 175 160 164 172 180 178 177 173 169 167 166 165 160 164 162 156 161 156 159 155 152 152 149 140 133 131 129 123 111 100 92 88
259 257 236 236 237 242 262 236 255 239 238 179 194 219 130 178 159 188 158 165 181 175 181 185 174 170 169 168 166 163 165 167 164 161 165 160 160 158 157 147 141 135 139 133 124 110 95 89 90
259 219 246 239 244 245 241 260 270 259 277 241 171 206 141 202 178 167 156 161 185 181 182 190 178 173 171 170 167 166 165 168 165 167 166 167 164 161 158 151 145 143 146 136 122 102 92 83 87
249 247 243 253 253 246 230 252 255 252 234 257 170 200 167 174 177 160 153 161 187 182 185 193 181 177 176 175 171 168 168 169 169 169 168 170 169 164 162 159 152 151 152 142 125 114 108 81 88
251 259 257 249 251 258 250 246 248 261 228 259 247 192 162 174 189 158 157 175 193 189 193 192 180 180 180 179 176 172 171 171 171 173 174 174 172 166 166 164 158 161 160 151 131 125 85 93 89
266 242 246 246 248 267 285 286 269 259 241 244 232 1 137 180 191 168 156 183 192 192 188 185 182 184 184 184 179 178 175 175 173 176 176 177 172 170 171 171 167 170 163 151 129 116 86 88 104
234 238 252 275 280 261 280 321 329 317 174 281 215 164 162 188 190 171 168 180 187 190 177 187 185 186 186 189 185 183 179 179 182 179 178 176 175 177 180 178 176 174 167 154 136 128 109 106 104
255 250 271 275 285 290 310 297 318 308 276 212 244 186 188 199 195 187 184 184 190 187 177 185 189 189 191 191 191 189 183 183 187 186 179 174 182 184 188 185 183 176 173 157 162 160 152 139 169
266 269 280 288 289 297 296 296 290 297 283 306 300 237 210 201 196 192 193 188 186 187 181 184 186 187 198 198 197 193 189 186 188 190 180 167 199 196 189 184 179 163 165 183 173 194 186 184 183
287 280 279 275 276 281 289 282 272 281 292 297 296 251 213 211 194 191 193 189 188 186 186 178 184 191 198 206 205 195 198 197 196 194 183 182 198 190 173 184 182 188 197 198 222 210 210 191 190
278 285 288 291 289 278 279 282 276 265 277 286 296 278 214 204 191 186 191 193 193 196 199 186 178 196 200 204 206 201 201 200 199 199 192 192 188 188 175 194 193 190 201 208 214 224 216 205 201
282 281 279 272 270 267 261 262 255 261 264 270 280 291 225 211 198 188 198 192 197 203 204 200 185 188 202 206 208 199 198 201 199 204 199 189 183 193 195 202 203 194 199 209 225 228 223 216 211
283 278 271 270 253 245 246 255 262 266 255 252 264 265 266 226 218 206 196 197 197 200 202 200 193 197 206 208 207 199 196 206 198 201 201 195 190 191 204 204 206 202 207 224 227 228 227 222 215
250 260 264 270 265 248 219 249 247 251 251 261 253 256 256 253 239 211 195 195 202 204 199 200 192 198 202 208 204 197 202 213 206 203 201 201 193 205 209 206 217 210 208 223 232 226 227 222 219
263 255 266 274 287 294 255 256 249 262 258 236 246 256 258 248 247 226 197 196 206 208 203 206 202 197 195 193 208 201 208 210 207 202 191 194 200 207 208 214 218 215 213 226 237 233 226 226 225
263 267 266 270 272 276 277 290 292 282 241 250 241 242 245 250 240 219 214 208 203 206 205 206 203 207 207 205 203 204 207 206 204 203 201 201 210 211 212 219 216 218 224 234 240 236 229 222 224
273 275 266 272 265 271 281 281 284 283 281 275 256 230 234 246 242 232 213 210 199 204 209 205 210 213 213 211 209 209 208 207 201 203 202 207 211 215 221 218 218 217 229 234 240 239 229 226 225
262 262 259 257 271 260 268 267 262 249 255 267 268 270 227 230 241 229 223 214 207 203 209 206 209 213 216 212 210 212 215 211 207 209 210 209 212 220 216 218 221 224 234 236 243 241 234 232 227
280 273 262 264 262 254 238 264 253 248 251 243 250 251 252 226 234 235 217 210 215 204 203 204 210 213 217 215 211 214 216 215 216 221 218 218 220 216 216 217 220 226 234 239 241 239 235 233 234
279 276 259 266 243 254 251 254 250 245 255 237 233 238 241 242 224 238 235 208 216 214 208 209 210 210 215 215 212 216 219 223 228 227 227 221 217 214 216 218 219 228 235 238 240 237 231 235 237
270 262 251 242 230 244 240 227 232 234 238 251 217 226 230 231 228 233 241 199 210 212 214 213 213 211 215 216 214 222 220 225 228 227 226 220 218 215 215 219 224 229 237 238 238 235 231 235 237
281 175 204 176 213 244 229 231 237 240 227 234 248 211 218 222 219 221 227 215 207 210 212 213 209 210 218 221 216 212 223 229 235 233 227 221 220 218 218 219 226 231 235 236 234 230 230 231 231
278 274 220 226 226 254 216 226 225 218 240 249 247 227 209 215 206 212 218 213 214 217 217 214 216 218 224 220 219 216 227 232 236 235 228 228 227 222 223 223 228 230 234 234 232 226 224 223 227
317 194 299 317 241 263 237 246 239 229 216 231 237 257 199 206 203 201 214 218 214 218 218 215 215 215 216 217 217 222 223 226 231 231 227 229 226 227 224 227 230 230 231 230 225 220 218 218 229
326 328 310 231 294 276 280 267 181 304 219 218 218 230 206 197 206 209 210 212 215 221 220 218 218 216 223 222 219 220 221 226 229 231 228 225 226 227 229 230 228 227 224 221 216 212 216 231 226
307 330 281 289 219 270 313 73 8 0 11 354 211 195 216 195 200 201 204 207 208 216 215 217 222 220 218 217 217 218 223 223 226 230 226 226 228 230 230 230 229 223 213 207 208 225 217 241 248
56 2 301 272 189 226 220 251 2 2 9 4 355 32 43 84 173 188 193 194 194 195 205 214 217 219 219 219 214 213 218 222 226 229 229 230 230 228 226 223 222 219 207 203 213 215 249 269 241
Wind_Speed_850mb
23 18 16 23 7 11 23 25 29 34 15 21 9 13 11 17 15 8 34 23 50 45 64 58 50 43 36 34 35 30 30 33 38 38 31 32 32 36 34 34 31 29 27 26 26 26 24 23 22
18 14 14 19 12 22 20 29 31 32 6 11 7 12 9 6 10 27 44 40 45 48 64 59 50 43 37 36 33 31 31 33 37 37 34 33 37 42 40 35 30 28 27 25 24 23 21 19 20
15 12 18 7 22 31 25 30 28 29 25 19 9 10 9 8 13 33 17 53 51 47 61 58 52 44 40 38 34 33 34 39 37 37 36 33 39 38 36 33 29 27 25 24 21 20 19 18 18
15 21 23 18 37 31 43 39 31 11 26 22 14 10 11 17 20 22 33 53 57 43 55 55 52 45 43 39 34 33 34 38 40 37 36 35 37 36 34 29 29 27 24 21 18 17 17 16 16
21 22 20 32 45 41 41 49 56 20 30 26 25 20 11 13 23 23 51 55 58 43 50 50 53 47 44 39 35 33 33 37 39 38 38 37 37 35 31 28 27 25 22 19 16 15 14 13 15
13 24 23 38 41 37 38 62 56 29 26 24 29 18 15 18 23 25 51 57 47 50 51 47 53 48 45 40 36 31 32 35 40 37 36 38 37 34 29 27 26 24 20 17 17 17 13 10 12
27 19 37 42 42 39 48 63 36 30 26 39 23 16 14 20 27 34 52 55 55 51 55 50 56 52 45 41 36 32 32 34 38 39 37 36 37 33 29 27 26 23 19 17 16 14 8 8 9
35 21 44 46 38 45 43 51 67 51 33 38 26 15 15 38 39 47 53 52 52 52 54 52 59 56 51 44 38 33 30 33 39 38 39 38 36 33 28 26 24 22 19 16 14 10 9 11 15
31 16 31 49 42 36 48 37 52 57 43 56 21 3 15 48 43 53 64 54 53 51 54 53 60 59 55 47 42 36 32 33 38 39 37 36 34 32 29 28 24 20 17 13 10 10 10 11 18
18 21 38 29 32 32 27 34 50 34 19 56 23 14 30 35 39 63 75 69 61 61 62 54 56 60 56 50 47 42 38 36 37 38 38 35 32 30 29 26 23 19 15 8 11 10 10 14 18
32 38 31 42 54 58 40 45 42 36 22 54 32 40 40 41 39 58 77 79 69 64 66 58 56 56 56 55 51 49 43 39 39 40 41 37 26 32 30 25 24 19 12 7 10 10 11 19 13
31 41 42 44 51 51 34 45 35 48 40 61 41 35 54 56 53 61 69 77 72 69 65 60 57 55 56 57 57 52 47 39 39 40 42 39 36 35 30 24 22 12 10 14 13 10 9 15 19
32 30 44 48 50 50 51 40 36 67 71 57 40 52 49 60 58 55 61 66 72 78 71 69 62 59 63 56 55 55 52 43 35 41 47 43 41 31 29 20 21 22 19 19 18 12 11 15 22
33 44 46 51 44 39 36 41 46 56 45 53 50 30 41 52 58 57 56 60 71 78 75 78 72 59 62 64 63 59 57 50 44 43 48 45 38 32 32 36 34 32 26 22 18 13 13 19 21
41 32 30 32 39 38 45 46 56 61 57 68 64 53 36 49 53 59 60 67 72 69 70 74 77 68 63 65 64 63 57 50 47 43 45 45 38 34 38 38 37 32 32 22 16 16 20 20 21
35 35 34 29 36 47 40 51 46 49 60 56 70 56 44 48 45 51 59 64 66 71 69 72 76 74 70 64 62 69 56 51 47 45 43 49 46 36 47 42 42 32 28 24 21 21 24 22 22
23 28 40 40 38 29 36 52 38 59 58 57 61 58 50 50 57 61 58 63 69 72 71 67 73 68 69 69 61 68 63 59 50 48 44 40 45 44 46 43 39 34 30 26 23 24 26 27 26
24 27 33 34 26 32 34 34 23 46 48 63 59 59 50 56 55 48 57 64 64 68 74 72 77 77 71 61 58 68 65 58 52 47 45 46 47 50 46 45 43 38 32 28 28 29 31 30 28
32 40 40 41 38 36 33 31 27 27 43 44 57 68 51 58 55 53 65 60 64 73 74 76 75 83 83 81 72 73 70 60 52 49 51 48 53 51 51 48 41 39 35 32 35 33 36 36 35
42 44 44 38 40 33 35 38 32 35 39 46 46 51 68 58 64 63 60 67 67 70 69 77 80 76 84 84 78 76 71 62 59 58 58 55 55 54 52 47 43 39 38 38 39 40 41 41 36
41 40 43 43 37 32 33 38 36 32 50 61 63 55 58 70 61 61 70 74 66 74 74 78 77 78 85 80 78 74 73 66 68 69 63 65 59 57 53 48 44 40 40 40 40 41 43 42 36
48 37 48 42 35 26 25 29 31 29 38 39 54 60 56 63 69 51 71 70 72 73 75 77 78 74 77 84 82 88 90 86 80 75 68 64 58 57 56 51 45 42 41 43 43 42 43 41 39
45 34 39 39 27 28 37 21 28 29 37 42 44 65 67 63 64 72 53 92 82 70 75 80 87 81 83 76 86 83 86 89 85 81 74 68 61 59 59 54 47 47 45 45 45 44 44 45 42
42 31 26 29 17 23 45 31 21 31 39 36 36 71 75 72 74 76 60 74 75 71 65 76 79 88 88 79 84 88 84 87 84 84 80 70 65 64 62 57 52 53 50 49 46 43 45 47 45
9 7 6 7 11 21 22 25 35 25 42 46 43 69 82 85 80 74 62 46 64 73 69 74 78 87 89 78 73 82 82 80 79 82 77 74 72 71 65 61 57 56 54 52 51 51 51 49 46
21 13 5 7 6 9 24 17 28 53 49 54 50 56 81 85 85 83 70 53 63 71 72 76 83 86 86 81 79 91 91 83 79 74 73 74 69 67 63 64 62 59 60 56 53 51 48 46 43
1 6 15 13 10 9 13 25 26 27 46 46 36 45 74 82 72 73 74 73 57 76 77 69 80 81 78 78 86 91 92 85 84 77 70 66 65 67 69 67 66 64 60 56 53 50 46 45 38
8 19 1 3 8 9 12 16 8 19 29 21 26 28 51 72 72 75 70 71 70 74 75 65 76 76 80 83 89 97 90 82 80 75 71 69 67 71 71 70 69 65 59 54 51 48 38 36 34
6 5 8 12 6 5 13 5 14 26 24 18 15 35 29 67 71 70 73 64 67 66 63 54 67 71 72 84 89 91 86 82 83 78 76 71 69 74 75 73 69 64 51 49 45 38 30 27 32
8 19 11 9 6 6 7 7 21 33 30 28 25 43 42 27 36 59 65 56 53 51 46 49 58 61 69 78 82 83 85 84 87 78 76 74 74 77 75 69 67 64 52 39 33 30 22 30 30
Wind_Direction_850mb
273 270 309 293 252 246 232 232 246 271 264 278 44 352 351 39 323 133 147 146 171 183 176 174 174 171 168 164 162 167 168 167 163 163 153 167 172 165 162 149 138 131 124 118 112 105 100 95 92
273 262 296 263 238 243 241 234 234 240 161 106 74 309 329 121 128 127 160 151 179 181 175 174 175 171 167 163 162 162 166 160 156 154 149 151 154 155 153 146 139 132 123 119 114 110 102 92 87
307 281 255 225 236 239 247 248 231 233 205 151 161 213 285 90 102 143 170 156 170 187 175 175 174 170 166 164 163 160 164 158 156 155 154 152 152 152 148 146 139 129 127 124 120 114 101 90 87
283 240 240 243 244 239 238 265 264 251 206 165 211 266 148 131 139 175 160 164 172 180 178 177 173 169 167 166 165 160 164 162 156 161 156 159 155 152 152 149 140 133 131 129 123 111 100 92 88
259 257 236 236 237 242 262 236 255 239 238 179 194 219 130 178 159 188 158 165 181 175 181 185 174 170 169 168 166 163 165 167 164 161 165 160 160 158 157 147 141 135 139 133 124 110 95 89 90
259 219 246 239 244 245 241 260 270 259 277 241 171 206 141 202 178 167 156 161 185 181 182 190 178 173 171 170 167 166 165 168 165 167 166 167 164 161 158 151 145 143 146 136 122 102 92 83 87
249 247 243 253 253 246 230 252 255 252 234 257 170 200 167 174 177 160 153 161 187 182 185 193 181 177 176 175 171 168 168 169 169 169 168 170 169 164 162 159 152 151 152 142 125 114 108 81 88
251 259 257 249 251 258 250 246 248 261 228 259 247 192 162 174 189 158 157 175 193 189 193 192 180 180 180 179 176 172 171 171 171 173 174 174 172 166 166 164 158 161 160 151 131 125 85 93 89
266 242 246 246 248 267 285 286 269 259 241 244 232 1 137 180 191 168 156 183 192 192 188 185 182 184 184 184 179 178 175 175 173 176 176 177 172 170 171 171 167 170 163 151 129 116 86 88 104
234 238 252 275 280 261 280 321 329 317 174 281 215 164 162 188 190 171 168 180 187 190 177 187 185 186 186 189 185 183 179 179 182 179 178 176 175 177 180 178 176 174 167 154 136 128 109 106 104
255 250 271 275 285 290 310 297 318 308 276 212 244 186 188 199 195 187 184 184 190 187 177 185 189 189 191 191 191 189 183 183 187 186 179 174 182 184 188 185 183 176 173 157 162 160 152 139 169
266 269 280 288 289 297 296 296 290 297 283 306 300 237 210 201 196 192 193 188 186 187 181 184 186 187 198 198 197 193 189 186 188 190 180 167 199 196 189 184 179 163 165 183 173 194 186 184 183
287 280 279 275 276 281 289 282 272 281 292 297 296 251 213 211 194 191 193 189 188 186 186 178 184 191 198 206 205 195 198 197 196 194 183 182 198 190 173 184 182 188 197 198 222 210 210 191 190
278 285 288 291 289 278 279 282 276 265 277 286 296 278 214 204 191 186 191 193 193 196 199 186 178 196 200 204 206 201 201 200 199 199 192 192 188 188 175 194 193 190 201 208 214 224 216 205 201
282 281 279 272 270 267 261 262 255 261 264 270 280 291 225 211 198 188 198 192 197 203 204 200 185 188 202 206 208 199 198 201 199 204 199 189 183 193 195 202 203 194 199 209 225 228 223 216 211
283 278 271 270 253 245 246 255 262 266 255 252 264 265 266 226 218 206 196 197 197 200 202 200 193 197 206 208 207 199 196 206 198 201 201 195 190 191 204 204 206 202 207 224 227 228 227 222 215
250 260 264 270 265 248 219 249 247 251 251 261 253 256 256 253 239 211 195 195 202 204 199 200 192 198 202 208 204 197 202 213 206 203 201 201 193 205 209 206 217 210 208 223 232 226 227 222 219
263 255 266 274 287 294 255 256 249 262 258 236 246 256 258 248 247 226 197 196 206 208 203 206 202 197 195 193 208 201 208 210 207 202 191 194 200 207 208 214 218 215 213 226 237 233 226 226 225
263 267 266 270 272 276 277 290 292 282 241 250 241 242 245 250 240 219 214 208 203 206 205 206 203 207 207 205 203 204 207 206 204 203 201 201 210 211 212 219 216 218 224 234 240 236 229 222 224
273 275 266 272 265 271 281 281 284 283 281 275 256 230 234 246 242 232 213 210 199 204 209 205 210 213 213 211 209 209 208 207 201 203 202 207 211 215 221 218 218 217 229 234 240 239 229 226 225
262 262 259 257 271 260 268 267 262 249 255 267 268 270 227 230 241 229 223 214 207 203 209 206 209 213 216 212 210 212 215 211 207 209 210 209 212 220 216 218 221 224 234 236 243 241 234 232 227
280 273 262 264 262 254 238 264 253 248 251 243 250 251 252 226 234 235 217 210 215 204 203 204 210 213 217 215 211 214 216 215 216 221 218 218 220 216 216 217 220 226 234 239 241 239 235 233 234
279 276 259 266 243 254 251 254 250 245 255 237 233 238 241 242 224 238 235 208 216 214 208 209 210 210 215 215 212 216 219 223 228 227 227 221 217 214 216 218 219 228 235 238 240 237 231 235 237
270 262 251 242 230 244 240 227 232 234 238 251 217 226 230 231 228 233 241 199 210 212 214 213 213 211 215 216 214 222 220 225 228 227 226 220 218 215 215 219 224 229 237 238 238 235 231 235 237
281 175 204 176 213 244 229 231 237 240 227 234 248 211 218 222 219 221 227 215 207 210 212 213 209 210 218 221 216 212 223 229 235 233 227 221 220 218 218 219 226 231 235 236 234 230 230 231 231
278 274 220 226 226 254 216 226 225 218 240 249 247 227 209 215 206 212 218 213 214 217 217 214 216 218 224 220 219 216 227 232 236 235 228 228 227 222 223 223 228 230 234 234 232 226 224 223 227
317 194 299 317 241 263 237 246 239 229 216 231 237 257 199 206 203 201 214 218 214 218 218 215 215 215 216 217 217 222 223 226 231 231 227 229 226 227 224 227 230 230 231 230 225 220 218 218 229
326 328 310 231 294 276 280 267 181 304 219 218 218 230 206 197 206 209 210 212 215 221 220 218 218 216 223 222 219 220 221 226 229 231 228 225 226 227 229 230 228 227 224 221 216 212 216 231 226
307 330 281 289 219 270 313 73 8 0 11 354 211 195 216 195 200 201 204 207 208 216 215 217 222 220 218 217 217 218 223 223 226 230 226 226 228 230 230 230 229 223 213 207 208 225 217 241 248
56 2 301 272 189 226 220 251 2 2 9 4 355 32 43 84 173 188 193 194 194 195 205 214 217 219 219 219 214 213 218 222 226 229 229 230 230 228 226 223 222 219 207 203 213 215 249 269 241